Location: Góry Miechowskie
(50.3599°N, 20.1803°E)
Time: 06:52:08
(UTC+00:00)

A-11 Canister half - Pass Details

Date: 20 September 2024
Orbit: 1515 x 1684 km, 47.2° (Epoch: 04 October)

Event Time Altitude Azimuth Distance (km) Brightness Sun altitude
Rises 14:30:22 0° 198° (SSW) 4,782 12.2 19.5°
Reaches altitude 10° 14:34:08 10° 186° (S) 3,773 11.5 19.0°
Maximum altitude 14:41:29 26° 135° (SE) 2,684 10.2 17.9°
Drops below altitude 10° 14:48:41 10° 84° (E) 3,699 10.5 16.8°
Sets 14:52:18 0° 72° (ENE) 4,672 10.9 16.3°
